Weather History for Alliance, NE

Change the Weather History Date:

Friday, January 11, 2013

  Actual Average Record
Temperature  
Mean Temperature 18 °F 24 °F  
Max Temperature 32 °F 38 °F 65 °F (1928)
Min Temperature 4 °F 10 °F -30 °F (1918)
Degree Days  
Heating Degree Days 47 41  
Month to date heating degree days 440 454  
Since 1 July heating degree days 3244 3536  
Moisture  
Dew Point 18 °F    
Average Humidity 87    
Maximum Humidity 100    
Minimum Humidity 73    
Precipitation  
Precipitation T in 0.01 in 0.40 in (1905)
Month to date precipitation T 0.06  
Year to date precipitation T 0.06  
Sea Level Pressure  
Sea Level Pressure 29.51 in    
Wind  
Wind Speed 16 mph (North)    
Max Wind Speed 28 mph    
Max Gust Speed 36 mph    
Visibility 4 miles    
Events Fog , Snow    
T = Trace of Precipitation, MM = Missing Value Source: NWS Daily Summary

Daily Weather History Graph

Daily Weather History Graph

Search for Another Location

Airport:

Trip Planner

Search our weather history database for the weather conditions in past years. The results will help you decide how hot, cold, wet, or windy it might be!

Date:

Astronomy

Jan. 11, 2013 Rise Set
Actual Time 7:18 AM MST 4:40 PM MST
Civil Twilight 6:47 AM MST 5:11 PM MST
Nautical Twilight 6:12 AM MST 5:46 PM MST
Astronomical Twilight 5:38 AM MST 6:20 PM MST
Moon 6:52 AM MST (1/11) 5:02 PM MST (1/11)
Length of Visible Light 10h 24m
Length of Day
9h 22m
Waning Crescent, 0% of the Moon is Illuminated
Jan 11
Waning Crescent
Jan 11
New
Jan 18
First Quarter
Jan 26
Full
Feb 3
Last Quarter

Hourly Weather History & Observations

Time (MST) Temp. Windchill Dew Point Humidity Pressure Visibility Wind Dir Wind Speed Gust Speed Precip Events Conditions
12:53 AM 32.0 °F 26.4 °F 30.9 °F 96% 29.44 in 0.5 mi NW 5.8 mph - N/A Fog Fog
1:53 AM 32.0 °F - 30.9 °F 96% 29.43 in 0.5 mi Calm Calm - N/A Fog Fog
2:53 AM 30.9 °F 25.2 °F 30.0 °F 96% 29.39 in 0.2 mi ESE 5.8 mph - N/A Fog Light Freezing Fog
3:25 AM 30.2 °F - 30.2 °F 100% 29.36 in 0.2 mi Calm Calm - N/A Fog Light Freezing Fog
3:53 AM 30.0 °F 24.1 °F 28.9 °F 96% 29.35 in 0.2 mi ESE 5.8 mph - N/A Fog Light Freezing Fog
4:26 AM 28.4 °F 23.3 °F 28.4 °F 100% 29.31 in 0.2 mi NE 4.6 mph - N/A Fog Light Freezing Fog
4:53 AM 28.0 °F 20.8 °F 27.0 °F 96% 29.37 in 0.2 mi North 6.9 mph - N/A Fog Light Freezing Fog
5:53 AM 28.9 °F - 28.0 °F 96% 29.43 in 0.5 mi Calm Calm - N/A Fog Light Freezing Fog
6:26 AM 30.2 °F 20.2 °F 28.4 °F 93% 29.37 in 1.2 mi North 12.7 mph 17.3 mph N/A   Overcast
6:30 AM 30.2 °F 19.8 °F 28.4 °F 93% 29.37 in 2.0 mi North 13.8 mph - N/A   Overcast
6:39 AM 30.2 °F 18.1 °F 28.4 °F 93% 29.36 in 4.0 mi NNE 18.4 mph 24.2 mph N/A   Overcast
6:53 AM 28.9 °F 15.8 °F 27.0 °F 92% 29.42 in 10.0 mi North 20.7 mph 27.6 mph N/A   Overcast
7:09 AM 28.4 °F 15.1 °F 26.6 °F 93% 29.37 in 10.0 mi NNE 20.7 mph - N/A   Overcast
7:31 AM 28.4 °F 15.4 °F 26.6 °F 93% 29.38 in 10.0 mi NNE 19.6 mph - N/A   Overcast
7:53 AM 28.0 °F 15.3 °F 26.1 °F 92% 29.45 in 2.0 mi NNE 18.4 mph 27.6 mph N/A   Overcast
7:57 AM 28.4 °F 17.5 °F 26.6 °F 93% 29.40 in 1.2 mi North 13.8 mph - N/A   Overcast
8:02 AM 28.4 °F 15.1 °F 26.6 °F 93% 29.40 in 0.8 mi NNE 20.7 mph 24.2 mph N/A   Overcast
8:53 AM 27.0 °F 12.5 °F 25.0 °F 92% 29.45 in 0.8 mi NNE 23.0 mph 26.5 mph 0.00 in Snow Light Snow
9:05 AM 26.6 °F 11.7 °F 24.8 °F 93% 29.39 in 1.0 mi NNE 24.2 mph 29.9 mph 0.00 in Snow Light Snow
9:12 AM 24.8 °F 10.0 °F 23.0 °F 93% 29.39 in 1.5 mi NNE 21.9 mph 29.9 mph 0.00 in Snow Light Snow
9:23 AM 24.8 °F 10.3 °F 23.0 °F 93% 29.40 in 3.0 mi NNE 20.7 mph 27.6 mph 0.00 in   Overcast
9:39 AM 24.8 °F 9.6 °F 23.0 °F 93% 29.42 in 1.5 mi NNE 23.0 mph 27.6 mph 0.00 in   Overcast
9:42 AM 24.8 °F 11.1 °F 23.0 °F 93% 29.42 in 0.8 mi NNE 18.4 mph 27.6 mph 0.00 in   Overcast
9:51 AM 24.8 °F 11.9 °F 23.0 °F 93% 29.43 in 1.2 mi NNE 16.1 mph 24.2 mph 0.00 in   Overcast
9:53 AM 24.1 °F 10.6 °F 23.0 °F 96% 29.51 in 1.5 mi NNE 17.3 mph 24.2 mph 0.00 in   Overcast
10:05 AM 24.8 °F 10.7 °F 21.2 °F 86% 29.42 in 3.0 mi NNE 19.6 mph 25.3 mph N/A   Overcast
10:48 AM 23.0 °F 8.7 °F 21.2 °F 93% 29.41 in 10.0 mi North 18.4 mph 26.5 mph N/A   Overcast
10:53 AM 23.0 °F 8.3 °F 21.0 °F 92% 29.49 in 10.0 mi North 19.6 mph 26.5 mph N/A   Overcast
11:41 AM 21.2 °F 8.3 °F 19.4 °F 93% 29.43 in 10.0 mi North 13.8 mph - N/A   Overcast
11:53 AM 21.9 °F 9.8 °F 19.0 °F 89% 29.51 in 10.0 mi North 12.7 mph - N/A   Overcast
12:12 PM 21.2 °F 6.4 °F 19.4 °F 93% 29.42 in 2.0 mi North 18.4 mph - 0.00 in Snow Light Snow
12:40 PM 21.2 °F 5.2 °F 17.6 °F 86% 29.42 in 2.0 mi North 21.9 mph 29.9 mph 0.00 in Snow Light Snow
12:53 PM 19.4 °F 3.2 °F 15.8 °F 86% 29.43 in 2.0 mi North 20.7 mph 32.2 mph N/A Snow Light Snow
12:58 PM 19.4 °F 1.1 °F 17.6 °F 93% 29.43 in 1.2 mi North 27.6 mph 34.5 mph 0.00 in Snow Light Snow
1:03 PM 19.4 °F 1.8 °F 15.8 °F 86% 29.43 in 1.5 mi North 25.3 mph 34.5 mph 0.00 in Snow Light Snow
1:08 PM 17.6 °F -0.6 °F 14.0 °F 86% 29.44 in 1.0 mi NNW 25.3 mph 33.4 mph 0.00 in Snow Light Snow
1:16 PM 17.6 °F 0.1 °F 14.0 °F 86% 29.44 in 1.2 mi NNW 23.0 mph 34.5 mph 0.00 in Snow Light Snow
1:19 PM 17.6 °F 0.1 °F 14.0 °F 86% 29.44 in 2.0 mi NNW 23.0 mph 29.9 mph 0.00 in Snow Light Snow
1:25 PM 17.6 °F 0.5 °F 12.2 °F 79% 29.45 in 1.2 mi North 21.9 mph 29.9 mph 0.00 in Snow Light Snow
1:35 PM 17.6 °F 0.9 °F 12.2 °F 79% 29.46 in 1.0 mi North 20.7 mph 31.1 mph 0.00 in Snow Light Snow
1:44 PM 15.8 °F -1.5 °F 12.2 °F 86% 29.47 in 0.5 mi NNW 20.7 mph - 0.00 in Fog , Snow Snow
1:53 PM 16.0 °F -0.9 °F 12.0 °F 84% 29.57 in 0.2 mi NNW 19.6 mph 28.8 mph 0.00 in Fog , Snow Heavy Snow
2:07 PM 15.8 °F -0.6 °F 12.2 °F 86% 29.50 in 0.2 mi NNW 18.4 mph 28.8 mph 0.00 in Fog , Snow Heavy Snow
2:53 PM 14.0 °F -0.8 °F 10.9 °F 88% 29.65 in 0.5 mi NW 13.8 mph - 0.00 in Fog , Snow Snow
3:34 PM 12.2 °F -6.7 °F 8.6 °F 85% 29.57 in 1.0 mi NW 21.9 mph 31.1 mph 0.00 in Snow Light Snow
3:39 PM 12.2 °F -5.8 °F 8.6 °F 85% 29.57 in 1.5 mi NW 19.6 mph - 0.00 in Snow Light Snow
3:53 PM 12.9 °F -3.9 °F 9.0 °F 84% 29.69 in 1.8 mi NW 17.3 mph 26.5 mph 0.00 in Snow Light Snow
4:03 PM 12.2 °F -4.8 °F 8.6 °F 85% 29.58 in 2.0 mi NNW 17.3 mph 27.6 mph 0.00 in Snow Light Snow
4:11 PM 12.2 °F -4.8 °F 8.6 °F 85% 29.58 in 3.0 mi NNW 17.3 mph - 0.00 in Snow Light Snow
4:26 PM 12.2 °F -4.3 °F 8.6 °F 85% 29.59 in 5.0 mi NW 16.1 mph - 0.00 in Snow Light Snow
4:42 PM 12.2 °F -6.7 °F 6.8 °F 79% 29.60 in 8.0 mi NW 21.9 mph - 0.00 in Snow Light Snow
4:53 PM 12.0 °F -6.9 °F 6.1 °F 77% 29.73 in 10.0 mi NW 21.9 mph 28.8 mph 0.00 in   Overcast
5:53 PM 10.9 °F -5.9 °F 6.1 °F 81% 29.78 in 10.0 mi NW 16.1 mph - N/A   Overcast
6:04 PM 10.4 °F -9.5 °F 5.0 °F 79% 29.65 in 10.0 mi NW 23.0 mph 27.6 mph N/A   Overcast
6:53 PM 10.9 °F -7.0 °F 5.0 °F 77% 29.81 in 10.0 mi NW 18.4 mph 27.6 mph N/A   Overcast
7:53 PM 10.9 °F -8.3 °F 5.0 °F 77% 29.83 in 10.0 mi NW 21.9 mph 31.1 mph N/A   Overcast
8:53 PM 9.0 °F -10.5 °F 1.9 °F 73% 29.87 in 10.0 mi NW 20.7 mph 29.9 mph N/A   Mostly Cloudy
9:53 PM 8.1 °F -10.7 °F 1.0 °F 73% 29.91 in 10.0 mi NW 18.4 mph 28.8 mph N/A   Clear
10:53 PM 7.0 °F -14.0 °F -0.0 °F 73% 29.93 in 10.0 mi NW 23.0 mph 29.9 mph N/A   Clear
11:53 PM 5.0 °F -9.1 °F -0.9 °F 76% 29.96 in 10.0 mi WNW 9.2 mph - N/A   Clear